Regional Weather Roundup
Issued by NWS

Home | Current Version | Previous Version | Graphics & Text | Print | Product List | Glossary On
Versions: 1 2 3 4 5 6 7 8 9 10 11 12 13 14 15 16 17 18 19 20 21 22 23 24 25 26 27 28 29 30 31 32 33 34 35 36 37 38 39 40 41 42 43 44 45 46 47 48 49 50
000
ASUS44 KMEG 230600
RWRTN
TENNESSEE HOURLY STATE WEATHER ROUNDUP
NATIONAL WEATHER SERVICE MEMPHIS TN
100 AM CDT SAT AUG 23 2014

TNZ002-004-019-021-049-052-054-088>092-230700-
WEST TENNESSEE

CITY           SKY/WX    TMP DP  RH WIND       PRES   REMARKS
MEMPHIS INTL   FAIR      80  72  76 S6        30.00F
NWS MEMPHIS      N/A     79 N/A N/A MISG        N/A
JACKSON        FAIR      77  73  87 SW6       30.00F
DYERSBURG      FAIR      79  66  65 CALM      29.99F
PARIS          CLEAR     73  72  94 CALM      30.01S
SAVANNAH       CLEAR     73  73 100 CALM      30.01F
$$

TNZ008-025-027-028-033-062-065-066-230700-
NORTH MIDDLE TENNESSEE

CITY           SKY/WX    TMP DP  RH WIND       PRES   REMARKS
NASHVILLE      FAIR      77  74  90 S3        30.02S
CLARKSVILLE    FAIR      76  74  93 CALM      30.01R
COOKEVILLE     CLEAR     73  72  94 CALM      30.04S
CROSSVILLE     FAIR      73  69  87 CALM      30.09F FOG
$$

TNZ061-075-076-078-094-096-097-230700-
SOUTH MIDDLE TENNESSEE

CITY           SKY/WX    TMP DP  RH WIND       PRES   REMARKS
SHELBYVILLE    CLEAR     73  73 100 CALM      30.04F
$$

TNZ017-018-042-046-047-230700-
NORTHEAST TENNESSEE

CITY           SKY/WX    TMP DP  RH WIND       PRES   REMARKS
TRI CITIES     FAIR      70  67  90 CALM      30.06F
ELIZABETHTON   LGT RAIN  66  66 100 NE3       30.07F
$$

TNZ012-013-036-069-073-074-230700-
CENTRAL EAST TENNESSEE

CITY           SKY/WX    TMP DP  RH WIND       PRES   REMARKS
KNOXVILLE      MOCLDY    75  72  90 CALM      30.02F
OAK RIDGE      FAIR      76  72  87 CALM      30.03F
GATLINBURG     CLEAR     72  70  94 CALM      30.03F
$$

TNZ083-085-099-230700-
SOUTHEAST TENNESSEE

CITY           SKY/WX    TMP DP  RH WIND       PRES   REMARKS
CHATTANOOGA    FAIR      77  72  84 CALM      30.03F
$$

SKY/WX REPORTED AS FAIR MEANS FEW OR NO CLOUDS BELOW
12 THOUSAND FEET.



USA.gov is the U.S. government's official web portal to all federal, state and local government web resources and services.